Flag for Iceland Weather past 2 weeks in Reykjavik, Iceland

Now
28 °F

Partly cloudy.


Feels Like: 20 °F
Forecast: 29 / 33 °F
Wind: 9 mph from East

Location: Reykjavik Airport

Current Time: Feb 1, 2015 at 5:06:55 AM

Latest Report: Feb 1, 2015 at 4:00 AM


Visibility: N/A

Pressure: 29.77 "Hg

Humidity: 86%

Dew point: 25 °F

Location of ReykjavikLocation

Historic Weather in Reykjavik — Graph

°F

Reykjavik temperature yesterday

Maximum temperature yesterday: 30 °F (at 4:02 PM)
Minimum temperature yesterday: 25 °F (at 10:00 AM)
Average temperature yesterday: 28 °F

Past Weeks' High & Low Weather Summary

 TemperatureHumidityPressure
High43 °F (Jan 26, 10:00 PM)100% (Jan 24, 7:00 PM)30.36 "Hg (Jan 24, 7:00 PM)
Low16 °F (Jan 18, 6:00 AM)46% (Jan 18, 12:00 PM)28.65 "Hg (Jan 25, 8:00 AM)
Average32 °F77%29.39 "Hg
* Reported Jan 17 4:00 AM — Feb 1 4:00 AM, Reykjavik, Weather by CustomWeather, © 2014

Note: Actual official high and low records may vary slightly from our data, if they occured in-between our weather recording intervals... More about our weather records

Advertising

Reykjavik weather history for previous 24 hours

 ConditionsComfort  
Time TempWeatherWind HumidityBarometerVisibility
4:00 AM
Feb 1
28 °FPartly cloudy.9 mph86%29.77 "HgN/A
3:00 AM28 °FPartly cloudy.9 mph80%29.80 "HgN/A
2:00 AM28 °FPartly cloudy.10 mph80%29.80 "HgN/A
1:00 AM28 °FPartly cloudy.9 mph80%29.83 "HgN/A
12:00 AM30 °FPartly cloudy.8 mph80%29.86 "HgN/A
11:00 PM
Jan 31
30 °FPartly cloudy.7 mph80%29.89 "HgN/A
10:00 PM30 °FPartly cloudy.8 mph80%29.89 "HgN/A
9:00 PM30 °FMostly cloudy.8 mph75%29.92 "HgN/A
8:00 PM30 °FScattered showers. Passing clouds.7 mph75%29.95 "HgN/A
7:00 PMN/APassing clouds.7 mphN/AN/AN/A
6:00 PM30 °FPassing clouds.3 mph69%29.95 "HgN/A
5:00 PM28 °FSunny.3 mph74%29.98 "Hg10 mi
4:02 PM30 °FSunny.7 mph69%29.98 "Hg10 mi
3:05 PM28 °FSunny.6 mph74%29.98 "Hg10 mi
2:00 PM27 °FSunny.6 mph74%30.01 "Hg10 mi
1:00 PM27 °FBroken clouds.5 mph69%30.01 "HgN/A
12:00 PM27 °FScattered clouds.6 mph69%30.01 "HgN/A
11:00 AM25 °FPassing clouds.5 mph74%30.01 "HgN/A
10:00 AM25 °FPassing clouds.5 mph80%29.98 "HgN/A
9:00 AM28 °FPassing clouds.1 mph69%30.01 "HgN/A
8:00 AM27 °FPassing clouds.5 mph74%29.98 "HgN/A
7:00 AM27 °FPassing clouds.5 mph74%29.98 "HgN/A
6:00 AM27 °FPassing clouds.9 mph69%29.98 "HgN/A
5:00 AM27 °FClear.9 mph69%29.95 "Hg10 mi
Weather by CustomWeather, © 2014

See weather overviewHow to use our weather pages